Time,TemperatureF,DewpointF,PressureIn,WindDirection,WindDirectionDegrees,WindSpeedMPH,WindSpeedGustMPH,Humidity,HourlyPrecipIn,Conditions,Clouds,dailyrainin,SoftwareType,DateUTC
2013-05-30 00:01:00,69.2,64.2,29.99,SSE,160,0.0,0.0,84,0.00,,,0.00,WeatherCatV1.15B25,2013-05-30 04:01:00,
2013-05-30 00:03:00,69.1,64.1,29.99,SSE,160,0.0,0.0,84,0.00,,,0.00,WeatherCatV1.15B25,2013-05-30 04:03:00,
2013-05-30 00:04:00,69.1,64.1,29.99,SSE,160,0.0,0.0,84,0.00,,,0.00,WeatherCatV1.15B25,2013-05-30 04:04:00,
2013-05-30 00:07:00,69.0,64.0,29.99,SSE,160,0.0,0.0,84,0.00,,,0.00,WeatherCatV1.15B25,2013-05-30 04:07:00,
2013-05-30 00:08:00,68.9,63.9,30.00,SSE,160,0.0,0.0,84,0.00,,,0.00,WeatherCatV1.15B25,2013-05-30 04:08:00,
2013-05-30 00:13:00,68.8,64.1,30.00,SSE,160,0.0,0.0,85,0.00,,,0.00,WeatherCatV1.15B25,2013-05-30 04:13:00,
2013-05-30 00:19:00,68.6,63.9,30.00,SSE,159,0.0,0.0,85,0.00,,,0.00,WeatherCatV1.15B25,2013-05-30 04:19:00,
2013-05-30 00:25:00,68.5,64.1,30.00,SSE,160,0.0,0.0,86,0.00,,,0.00,WeatherCatV1.15B25,2013-05-30 04:25:00,
2013-05-30 00:30:00,68.4,64.0,30.00,SSE,159,0.0,0.0,86,0.00,,,0.00,WeatherCatV1.15B25,2013-05-30 04:30:00,
2013-05-30 00:35:00,68.3,63.9,30.00,SSE,160,0.0,0.0,86,0.00,,,0.00,WeatherCatV1.15B25,2013-05-30 04:35:00,
2013-05-30 00:40:00,68.3,63.9,30.00,SSE,160,0.0,0.0,86,0.00,,,0.00,WeatherCatV1.15B25,2013-05-30 04:40:00,
2013-05-30 00:45:00,68.3,64.3,30.00,SSE,160,0.0,0.0,87,0.00,,,0.00,WeatherCatV1.15B25,2013-05-30 04:45:00,
2013-05-30 00:50:00,68.4,64.4,30.00,SSE,160,0.0,0.0,87,0.00,,,0.00,WeatherCatV1.15B25,2013-05-30 04:50:00,
2013-05-30 00:55:00,68.4,64.4,30.00,SSE,159,0.0,0.0,87,0.00,,,0.00,WeatherCatV1.15B25,2013-05-30 04:55:00,
2013-05-30 01:00:00,68.5,64.5,30.00,SSE,160,0.0,0.0,87,0.00,,,0.00,WeatherCatV1.15B25,2013-05-30 05:00:00,
2013-05-30 01:05:00,68.6,64.9,30.00,SSE,160,0.0,0.0,88,0.00,,,0.00,WeatherCatV1.15B25,2013-05-30 05:05:00,
2013-05-30 01:10:00,68.7,64.7,30.00,SSE,160,0.0,0.0,87,0.00,,,0.00,WeatherCatV1.15B25,2013-05-30 05:10:00,
2013-05-30 01:15:00,68.8,64.8,30.00,SSE,159,0.0,0.0,87,0.00,,,0.00,WeatherCatV1.15B25,2013-05-30 05:15:00,
2013-05-30 01:20:00,68.9,64.9,30.00,SSE,160,0.0,0.0,87,0.00,,,0.00,WeatherCatV1.15B25,2013-05-30 05:20:00,
2013-05-30 01:25:00,69.0,65.0,30.00,SSE,160,0.0,0.0,87,0.00,,,0.00,WeatherCatV1.15B25,2013-05-30 05:25:00,
2013-05-30 01:30:00,69.3,64.9,30.00,SSE,160,0.0,0.0,86,0.00,,,0.00,WeatherCatV1.15B25,2013-05-30 05:30:00,
2013-05-30 01:35:00,69.5,64.8,30.00,SSE,160,0.0,0.0,85,0.00,,,0.00,WeatherCatV1.15B25,2013-05-30 05:35:00,
2013-05-30 01:40:00,69.6,64.5,30.00,SSE,160,0.0,0.0,84,0.00,,,0.00,WeatherCatV1.15B25,2013-05-30 05:40:00,
2013-05-30 01:45:00,69.8,64.4,30.00,SSE,160,0.0,0.0,83,0.00,,,0.00,WeatherCatV1.15B25,2013-05-30 05:45:00,
2013-05-30 01:50:00,69.7,63.9,30.01,SSE,160,0.0,0.0,82,0.00,,,0.00,WeatherCatV1.15B25,2013-05-30 05:50:00,
2013-05-30 01:55:00,69.7,63.9,30.01,SSE,160,0.0,0.0,82,0.00,,,0.00,WeatherCatV1.15B25,2013-05-30 05:55:00,
2013-05-30 02:00:00,69.6,63.5,30.01,SSE,160,0.0,0.0,81,0.00,,,0.00,WeatherCatV1.15B25,2013-05-30 06:00:00,
2013-05-30 02:05:00,69.3,63.2,30.01,SSE,160,0.0,0.0,81,0.00,,,0.00,WeatherCatV1.15B25,2013-05-30 06:05:00,
2013-05-30 02:10:00,69.3,63.2,30.01,SSE,160,0.0,0.0,81,0.00,,,0.00,WeatherCatV1.15B25,2013-05-30 06:10:00,
2013-05-30 02:15:00,69.4,63.3,30.02,SSE,160,0.0,0.0,81,0.00,,,0.00,WeatherCatV1.15B25,2013-05-30 06:15:00,
2013-05-30 02:20:00,69.3,63.2,30.02,SSE,160,0.0,0.0,81,0.00,,,0.00,WeatherCatV1.15B25,2013-05-30 06:20:00,
2013-05-30 02:25:00,69.3,62.9,30.02,SSE,160,0.0,0.0,80,0.00,,,0.00,WeatherCatV1.15B25,2013-05-30 06:25:00,
2013-05-30 02:30:00,69.1,62.7,30.02,SSE,160,0.0,0.0,80,0.00,,,0.00,WeatherCatV1.15B25,2013-05-30 06:30:00,
2013-05-30 02:35:00,68.9,62.8,30.02,SSE,160,0.0,0.0,81,0.00,,,0.00,WeatherCatV1.15B25,2013-05-30 06:35:00,
2013-05-30 02:40:00,68.8,62.7,30.02,SSE,160,0.0,0.0,81,0.00,,,0.00,WeatherCatV1.15B25,2013-05-30 06:40:00,
2013-05-30 02:45:00,68.6,62.5,30.02,SSE,160,0.0,0.0,81,0.00,,,0.00,WeatherCatV1.15B25,2013-05-30 06:45:00,
2013-05-30 02:50:00,68.6,62.5,30.03,SSE,160,0.0,0.0,81,0.00,,,0.00,WeatherCatV1.15B25,2013-05-30 06:50:00,
2013-05-30 02:55:00,68.6,62.5,30.03,SSE,160,0.0,0.0,81,0.00,,,0.00,WeatherCatV1.15B25,2013-05-30 06:55:00,
2013-05-30 03:01:00,68.6,62.2,30.02,SSE,160,0.0,0.0,80,0.00,,,0.00,WeatherCatV1.15B25,2013-05-30 07:01:00,
2013-05-30 03:06:00,68.4,62.0,30.03,SSE,159,0.0,0.0,80,0.00,,,0.00,WeatherCatV1.15B25,2013-05-30 07:06:00,
2013-05-30 03:11:00,68.3,61.9,30.02,SSE,160,0.0,0.0,80,0.00,,,0.00,WeatherCatV1.15B25,2013-05-30 07:11:00,
2013-05-30 03:16:00,68.2,61.8,30.03,SSE,160,0.0,0.0,80,0.00,,,0.00,WeatherCatV1.15B25,2013-05-30 07:16:00,
2013-05-30 03:21:00,68.2,62.1,30.03,SSE,160,0.0,0.0,81,0.00,,,0.00,WeatherCatV1.15B25,2013-05-30 07:21:00,
2013-05-30 03:26:00,68.1,62.0,30.03,SSE,160,0.0,0.0,81,0.00,,,0.00,WeatherCatV1.15B25,2013-05-30 07:26:00,
2013-05-30 03:31:00,68.1,61.7,30.03,SSE,160,0.0,0.0,80,0.00,,,0.00,WeatherCatV1.15B25,2013-05-30 07:31:00,
2013-05-30 03:36:00,68.0,61.9,30.03,SSE,160,0.0,0.0,81,0.00,,,0.00,WeatherCatV1.15B25,2013-05-30 07:36:00,
2013-05-30 03:41:00,67.8,61.7,30.03,SSE,160,0.0,0.0,81,0.00,,,0.00,WeatherCatV1.15B25,2013-05-30 07:41:00,
2013-05-30 03:47:00,67.7,61.7,30.03,SSE,160,0.0,0.0,81,0.00,,,0.00,WeatherCatV1.15B25,2013-05-30 07:47:00,
2013-05-30 03:52:00,67.5,61.5,30.03,SSE,160,0.0,0.0,81,0.00,,,0.00,WeatherCatV1.15B25,2013-05-30 07:52:00,
2013-05-30 03:57:00,67.4,61.4,30.03,SSE,160,0.0,0.0,81,0.00,,,0.00,WeatherCatV1.15B25,2013-05-30 07:57:00,
2013-05-30 04:02:00,67.4,61.4,30.03,SSE,160,0.0,0.0,81,0.00,,,0.00,WeatherCatV1.15B25,2013-05-30 08:02:00,
2013-05-30 04:07:00,67.3,61.3,30.03,SSE,160,0.0,0.0,81,0.00,,,0.00,WeatherCatV1.15B25,2013-05-30 08:07:00,
2013-05-30 04:12:00,67.2,61.5,30.04,SSE,160,0.0,0.0,82,0.00,,,0.00,WeatherCatV1.15B25,2013-05-30 08:12:00,
2013-05-30 04:17:00,67.2,61.5,30.04,SSE,160,0.0,0.0,82,0.00,,,0.00,WeatherCatV1.15B25,2013-05-30 08:17:00,
2013-05-30 04:22:00,67.0,61.3,30.04,SSE,160,0.0,0.0,82,0.00,,,0.00,WeatherCatV1.15B25,2013-05-30 08:22:00,
2013-05-30 04:27:00,66.9,61.2,30.04,SSE,160,0.0,0.0,82,0.00,,,0.00,WeatherCatV1.15B25,2013-05-30 08:27:00,
2013-05-30 04:32:00,66.7,61.0,30.04,SSE,160,0.0,0.0,82,0.00,,,0.00,WeatherCatV1.15B25,2013-05-30 08:32:00,
2013-05-30 04:37:00,66.6,60.9,30.04,SSE,160,0.0,0.0,82,0.00,,,0.00,WeatherCatV1.15B25,2013-05-30 08:37:00,
2013-05-30 04:42:00,66.5,60.8,30.04,SSE,160,0.0,0.0,82,0.00,,,0.00,WeatherCatV1.15B25,2013-05-30 08:42:00,
2013-05-30 04:47:00,66.4,60.7,30.04,SSE,160,0.0,0.0,82,0.00,,,0.00,WeatherCatV1.15B25,2013-05-30 08:47:00,
2013-05-30 04:52:00,66.3,61.0,30.04,SSE,160,0.0,0.0,83,0.00,,,0.00,WeatherCatV1.15B25,2013-05-30 08:52:00,
2013-05-30 04:57:00,66.2,60.9,30.04,SSE,160,0.0,0.0,83,0.00,,,0.00,WeatherCatV1.15B25,2013-05-30 08:57:00,
2013-05-30 05:02:00,66.1,60.8,30.05,SSE,160,0.0,0.0,83,0.00,,,0.00,WeatherCatV1.15B25,2013-05-30 09:02:00,
2013-05-30 05:07:00,66.1,60.8,30.05,SSE,160,0.0,0.0,83,0.00,,,0.00,WeatherCatV1.15B25,2013-05-30 09:07:00,
2013-05-30 05:12:00,66.0,61.0,30.05,SSE,159,0.0,0.0,84,0.00,,,0.00,WeatherCatV1.15B25,2013-05-30 09:12:00,
2013-05-30 05:17:00,66.0,61.0,30.05,SSE,160,0.0,0.0,84,0.00,,,0.00,WeatherCatV1.15B25,2013-05-30 09:17:00,
2013-05-30 05:22:00,65.8,60.8,30.05,SSE,160,0.0,0.0,84,0.00,,,0.00,WeatherCatV1.15B25,2013-05-30 09:22:00,
2013-05-30 05:27:00,65.7,60.7,30.05,SSE,160,0.0,0.0,84,0.00,,,0.00,WeatherCatV1.15B25,2013-05-30 09:27:00,
2013-05-30 05:32:00,65.7,61.1,30.05,SSE,160,0.0,0.0,85,0.00,,,0.00,WeatherCatV1.15B25,2013-05-30 09:32:00,
2013-05-30 05:37:00,65.7,61.1,30.05,SSE,160,0.0,0.0,85,0.00,,,0.00,WeatherCatV1.15B25,2013-05-30 09:37:00,
2013-05-30 05:42:00,65.7,61.1,30.05,SSE,160,0.0,0.0,85,0.00,,,0.00,WeatherCatV1.15B25,2013-05-30 09:42:00,
2013-05-30 05:47:00,65.8,61.2,30.05,SSE,160,0.0,0.0,85,0.00,,,0.00,WeatherCatV1.15B25,2013-05-30 09:47:00,
2013-05-30 05:52:00,66.0,61.4,30.05,SSE,160,0.0,0.0,85,0.00,,,0.00,WeatherCatV1.15B25,2013-05-30 09:52:00,
2013-05-30 05:57:00,66.2,61.2,30.06,SSE,160,0.0,0.0,84,0.00,,,0.00,WeatherCatV1.15B25,2013-05-30 09:57:00,
2013-05-30 06:02:00,66.3,61.3,30.06,SSE,160,0.0,0.0,84,0.00,,,0.00,WeatherCatV1.15B25,2013-05-30 10:02:00,
2013-05-30 06:07:00,66.4,61.4,30.06,SSE,160,0.0,0.0,84,0.00,,,0.00,WeatherCatV1.15B25,2013-05-30 10:07:00,
2013-05-30 06:12:00,66.5,61.5,30.06,SSE,160,0.0,0.0,84,0.00,,,0.00,WeatherCatV1.15B25,2013-05-30 10:12:00,
2013-05-30 06:17:00,66.4,61.4,30.06,SSE,160,0.0,0.0,84,0.00,,,0.00,WeatherCatV1.15B25,2013-05-30 10:17:00,
2013-05-30 06:22:00,66.5,61.5,30.06,SSE,160,0.0,0.0,84,0.00,,,0.00,WeatherCatV1.15B25,2013-05-30 10:22:00,
2013-05-30 06:27:00,66.6,61.6,30.06,SSE,160,0.0,0.0,84,0.00,,,0.00,WeatherCatV1.15B25,2013-05-30 10:27:00,
2013-05-30 06:32:00,66.7,61.7,30.06,SSE,160,0.0,0.0,84,0.00,,,0.00,WeatherCatV1.15B25,2013-05-30 10:32:00,
2013-05-30 06:43:00,66.9,61.9,30.06,SSE,159,0.0,0.0,84,0.00,,,0.00,WeatherCatV1.15B25,2013-05-30 10:43:00,
2013-05-30 06:48:00,66.9,61.9,30.06,SSE,159,0.0,0.0,84,0.00,,,0.00,WeatherCatV1.15B25,2013-05-30 10:48:00,
2013-05-30 06:53:00,66.9,61.9,30.06,SSE,159,0.0,0.0,84,0.00,,,0.00,WeatherCatV1.15B25,2013-05-30 10:53:00,
2013-05-30 06:58:00,67.1,62.1,30.06,SSE,159,0.0,0.0,84,0.00,,,0.00,WeatherCatV1.15B25,2013-05-30 10:58:00,
2013-05-30 07:03:00,67.3,62.3,30.07,SSE,159,0.0,0.0,84,0.00,,,0.00,WeatherCatV1.15B25,2013-05-30 11:03:00,
2013-05-30 07:08:00,67.5,62.5,30.07,SSE,159,0.0,0.0,84,0.00,,,0.00,WeatherCatV1.15B25,2013-05-30 11:08:00,
2013-05-30 07:13:00,67.9,62.5,30.07,SSE,159,0.0,0.0,83,0.00,,,0.00,WeatherCatV1.15B25,2013-05-30 11:13:00,
2013-05-30 07:18:00,68.2,62.8,30.07,SSE,159,0.0,0.0,83,0.00,,,0.00,WeatherCatV1.15B25,2013-05-30 11:18:00,
2013-05-30 07:23:00,68.5,63.1,30.07,SSE,159,0.0,0.0,83,0.00,,,0.00,WeatherCatV1.15B25,2013-05-30 11:23:00,
2013-05-30 07:29:00,68.9,63.2,30.07,SSE,159,0.0,0.0,82,0.00,,,0.00,WeatherCatV1.15B25,2013-05-30 11:29:00,
2013-05-30 07:34:00,69.2,63.5,30.07,SSE,159,0.0,0.0,82,0.00,,,0.00,WeatherCatV1.15B25,2013-05-30 11:34:00,
2013-05-30 07:40:00,69.7,63.9,30.07,SSE,159,0.0,0.0,82,0.00,,,0.00,WeatherCatV1.15B25,2013-05-30 11:40:00,
2013-05-30 07:45:00,70.1,64.0,30.08,SSE,159,0.0,0.0,81,0.00,,,0.00,WeatherCatV1.15B25,2013-05-30 11:45:00,
2013-05-30 07:50:00,70.6,64.5,30.08,SSE,155,2.0,3.0,81,0.00,,,0.00,WeatherCatV1.15B25,2013-05-30 11:50:00,
2013-05-30 07:55:00,71.3,64.8,30.08,SSE,156,0.0,0.0,80,0.00,,,0.00,WeatherCatV1.15B25,2013-05-30 11:55:00,
2013-05-30 08:00:00,71.8,64.9,30.08,SSE,156,0.0,0.0,79,0.00,,,0.00,WeatherCatV1.15B25,2013-05-30 12:00:00,
2013-05-30 08:05:00,72.5,65.2,30.08,SSE,156,0.0,0.0,78,0.00,,,0.00,WeatherCatV1.15B25,2013-05-30 12:05:00,
2013-05-30 08:10:00,73.3,65.6,30.08,SSE,154,0.0,0.0,77,0.00,,,0.00,WeatherCatV1.15B25,2013-05-30 12:10:00,
2013-05-30 08:15:00,73.9,65.5,30.08,SSE,155,0.0,3.0,75,0.00,,,0.00,WeatherCatV1.15B25,2013-05-30 12:15:00,
2013-05-30 08:20:00,74.5,66.0,30.08,SSE,155,0.0,0.0,75,0.00,,,0.00,WeatherCatV1.15B25,2013-05-30 12:20:00,
2013-05-30 08:25:00,75.0,66.5,30.08,SSE,155,0.0,0.0,75,0.00,,,0.00,WeatherCatV1.15B25,2013-05-30 12:25:00,
2013-05-30 08:30:00,75.3,66.4,30.08,SSE,152,0.0,0.0,74,0.00,,,0.00,WeatherCatV1.15B25,2013-05-30 12:30:00,
2013-05-30 08:35:00,75.6,66.3,30.08,South,178,0.0,0.0,73,0.00,,,0.00,WeatherCatV1.15B25,2013-05-30 12:35:00,
2013-05-30 08:40:00,76.1,66.4,30.08,South,173,0.0,1.0,72,0.00,,,0.00,WeatherCatV1.15B25,2013-05-30 12:40:00,
2013-05-30 08:45:00,76.7,67.0,30.08,South,173,0.0,0.0,72,0.00,,,0.00,WeatherCatV1.15B25,2013-05-30 12:45:00,
2013-05-30 08:50:00,77.4,67.2,30.08,ESE,108,0.0,0.0,71,0.00,,,0.00,WeatherCatV1.15B25,2013-05-30 12:50:00,
2013-05-30 08:55:00,77.8,68.0,30.08,SW,229,0.0,1.0,72,0.00,,,0.00,WeatherCatV1.15B25,2013-05-30 12:55:00,
2013-05-30 09:00:00,78.0,67.4,30.09,SW,229,0.0,0.0,70,0.00,,,0.00,WeatherCatV1.15B25,2013-05-30 13:00:00,
2013-05-30 09:05:00,78.6,68.4,30.08,WSW,251,0.0,0.0,71,0.00,,,0.00,WeatherCatV1.15B25,2013-05-30 13:05:00,
2013-05-30 09:10:00,78.6,68.0,30.09,NNE,27,0.0,0.0,70,0.00,,,0.01,WeatherCatV1.15B25,2013-05-30 13:10:00,
2013-05-30 09:15:00,78.5,67.9,30.09,NNE,26,0.0,1.0,70,0.00,,,0.01,WeatherCatV1.15B25,2013-05-30 13:15:00,
2013-05-30 09:20:00,78.4,68.2,30.09,NNE,27,0.0,0.0,71,0.00,,,0.01,WeatherCatV1.15B25,2013-05-30 13:20:00,
2013-05-30 09:25:00,78.2,67.6,30.09,NNE,27,0.0,0.0,70,0.00,,,0.01,WeatherCatV1.15B25,2013-05-30 13:25:00,
2013-05-30 09:30:00,78.1,67.5,30.09,NNE,27,0.0,0.0,70,0.00,,,0.01,WeatherCatV1.15B25,2013-05-30 13:30:00,
2013-05-30 09:35:00,78.0,67.4,30.09,NNE,26,0.0,0.0,70,0.00,,,0.01,WeatherCatV1.15B25,2013-05-30 13:35:00,
2013-05-30 09:40:00,78.0,67.8,30.09,NNE,27,0.0,0.0,71,0.00,,,0.01,WeatherCatV1.15B25,2013-05-30 13:40:00,
2013-05-30 09:45:00,77.9,68.1,30.09,NNE,27,0.0,0.0,72,0.00,,,0.01,WeatherCatV1.15B25,2013-05-30 13:45:00,
2013-05-30 09:51:00,78.1,68.3,30.09,NNE,27,0.0,0.0,72,0.00,,,0.01,WeatherCatV1.15B25,2013-05-30 13:51:00,
2013-05-30 09:56:00,78.2,68.8,30.09,NNE,26,0.0,0.0,73,0.00,,,0.01,WeatherCatV1.15B25,2013-05-30 13:56:00,
2013-05-30 10:01:00,78.4,68.6,30.09,NNE,26,0.0,0.0,72,0.00,,,0.01,WeatherCatV1.15B25,2013-05-30 14:01:00,
2013-05-30 10:06:00,79.1,69.7,30.09,SE,128,2.0,3.0,73,0.00,,,0.01,WeatherCatV1.15B25,2013-05-30 14:06:00,
2013-05-30 10:11:00,80.1,69.8,30.09,ESE,108,0.0,0.0,71,0.00,,,0.01,WeatherCatV1.15B25,2013-05-30 14:11:00,
2013-05-30 10:16:00,80.5,69.4,30.09,WSW,241,0.0,2.0,69,0.00,,,0.01,WeatherCatV1.15B25,2013-05-30 14:16:00,
2013-05-30 10:21:00,81.0,69.8,30.09,East,100,0.0,0.0,69,0.00,,,0.01,WeatherCatV1.15B25,2013-05-30 14:21:00,
2013-05-30 10:26:00,81.5,69.5,30.09,WSW,238,0.0,1.0,67,0.00,,,0.01,WeatherCatV1.15B25,2013-05-30 14:26:00,
2013-05-30 10:31:00,81.5,69.5,30.08,SW,227,0.0,1.0,67,0.00,,,0.01,WeatherCatV1.15B25,2013-05-30 14:31:00,
2013-05-30 10:36:00,81.5,68.1,30.08,SSW,198,0.0,0.0,64,0.00,,,0.01,WeatherCatV1.15B25,2013-05-30 14:36:00,
2013-05-30 10:41:00,81.8,69.3,30.08,ESE,106,0.0,3.0,66,0.00,,,0.01,WeatherCatV1.15B25,2013-05-30 14:41:00,
2013-05-30 10:46:00,82.2,70.6,30.09,WSW,246,0.0,0.0,68,0.00,,,0.01,WeatherCatV1.15B25,2013-05-30 14:46:00,
2013-05-30 10:51:00,83.0,70.4,30.08,WSW,250,0.0,2.0,66,0.00,,,0.01,WeatherCatV1.15B25,2013-05-30 14:51:00,
2013-05-30 10:56:00,83.4,69.0,30.08,SE,136,0.0,0.0,62,0.00,,,0.01,WeatherCatV1.15B25,2013-05-30 14:56:00,
2013-05-30 11:01:00,84.0,70.5,30.08,SE,144,0.0,0.0,64,0.00,,,0.01,WeatherCatV1.15B25,2013-05-30 15:01:00,
2013-05-30 11:06:00,83.7,68.8,30.08,WSW,245,1.0,3.0,61,0.00,,,0.01,WeatherCatV1.15B25,2013-05-30 15:06:00,
2013-05-30 11:11:00,83.0,66.7,30.09,South,188,4.0,12.0,58,0.00,,,0.01,WeatherCatV1.15B25,2013-05-30 15:11:00,
2013-05-30 11:16:00,82.4,68.0,30.08,South,188,0.0,1.0,62,0.00,,,0.01,WeatherCatV1.15B25,2013-05-30 15:16:00,
2013-05-30 11:21:00,82.1,68.7,30.08,South,189,0.0,0.0,64,0.00,,,0.01,WeatherCatV1.15B25,2013-05-30 15:21:00,
2013-05-30 11:26:00,82.9,69.0,30.08,South,184,0.0,0.0,63,0.00,,,0.01,WeatherCatV1.15B25,2013-05-30 15:26:00,
2013-05-30 11:31:00,83.9,70.8,30.08,SSW,200,1.0,3.0,65,0.00,,,0.01,WeatherCatV1.15B25,2013-05-30 15:31:00,
2013-05-30 11:36:00,84.1,68.7,30.08,SSW,200,0.0,4.0,60,0.00,,,0.01,WeatherCatV1.15B25,2013-05-30 15:36:00,
2013-05-30 11:41:00,84.0,68.1,30.08,SSW,198,4.0,5.0,59,0.00,,,0.01,WeatherCatV1.15B25,2013-05-30 15:41:00,
2013-05-30 11:47:00,84.0,67.6,30.08,SSW,194,2.0,2.0,58,0.00,,,0.01,WeatherCatV1.15B25,2013-05-30 15:47:00,
2013-05-30 11:52:00,84.0,70.5,30.08,SSW,194,0.0,0.0,64,0.00,,,0.01,WeatherCatV1.15B25,2013-05-30 15:52:00,
2013-05-30 11:57:00,84.4,66.4,30.08,WSW,250,2.0,7.0,55,0.00,,,0.01,WeatherCatV1.15B25,2013-05-30 15:57:00,
2013-05-30 12:02:00,84.4,68.0,30.08,West,277,3.0,3.0,58,0.00,,,0.01,WeatherCatV1.15B25,2013-05-30 16:02:00,
2013-05-30 12:07:00,84.0,66.6,30.08,WSW,240,2.0,5.0,56,0.00,,,0.01,WeatherCatV1.15B25,2013-05-30 16:07:00,
2013-05-30 12:12:00,81.2,67.4,30.10,West,280,8.0,11.0,63,0.00,,,0.01,WeatherCatV1.15B25,2013-05-30 16:12:00,
2013-05-30 12:17:00,74.7,65.1,30.10,WSW,250,8.0,10.0,72,0.00,,,0.01,WeatherCatV1.15B25,2013-05-30 16:17:00,
2013-05-30 12:22:00,71.8,66.3,30.09,East,81,1.0,2.0,83,0.00,,,0.01,WeatherCatV1.15B25,2013-05-30 16:22:00,
2013-05-30 12:27:00,71.0,66.6,30.09,East,80,0.0,0.0,86,0.00,,,0.12,WeatherCatV1.15B25,2013-05-30 16:27:00,
2013-05-30 12:32:00,70.7,66.6,30.08,East,81,0.0,0.0,87,0.16,,,0.13,WeatherCatV1.15B25,2013-05-30 16:32:00,
2013-05-30 12:37:00,70.9,67.2,30.09,East,81,0.0,2.0,88,0.09,,,0.13,WeatherCatV1.15B25,2013-05-30 16:37:00,
2013-05-30 12:42:00,71.1,67.7,30.10,SSE,150,2.0,3.0,89,0.05,,,0.13,WeatherCatV1.15B25,2013-05-30 16:42:00,
2013-05-30 12:47:00,71.1,67.4,30.10,ESE,120,1.0,4.0,88,0.04,,,0.13,WeatherCatV1.15B25,2013-05-30 16:47:00,
2013-05-30 12:52:00,71.0,67.3,30.10,NW,322,0.0,3.0,88,0.00,,,0.13,WeatherCatV1.15B25,2013-05-30 16:52:00,
2013-05-30 12:57:00,70.9,67.5,30.09,NW,323,0.0,0.0,89,0.00,,,0.13,WeatherCatV1.15B25,2013-05-30 16:57:00,
2013-05-30 13:02:00,70.9,67.5,30.08,NW,323,0.0,0.0,89,0.00,,,0.13,WeatherCatV1.15B25,2013-05-30 17:02:00,
2013-05-30 13:07:00,70.9,67.5,30.09,NW,322,0.0,0.0,89,0.00,,,0.13,WeatherCatV1.15B25,2013-05-30 17:07:00,
2013-05-30 13:12:00,70.9,67.5,30.10,NW,322,0.0,0.0,89,0.00,,,0.13,WeatherCatV1.15B25,2013-05-30 17:12:00,
2013-05-30 13:17:00,70.9,67.5,30.10,NNW,338,1.0,2.0,89,0.00,,,0.13,WeatherCatV1.15B25,2013-05-30 17:17:00,
2013-05-30 13:22:00,70.9,67.5,30.10,NNW,338,0.0,0.0,89,0.00,,,0.13,WeatherCatV1.15B25,2013-05-30 17:22:00,
2013-05-30 13:27:00,70.8,67.4,30.10,ENE,64,2.0,2.0,89,0.00,,,0.13,WeatherCatV1.15B25,2013-05-30 17:27:00,
2013-05-30 13:32:00,71.1,67.7,30.10,ENE,64,0.0,0.0,89,0.00,,,0.13,WeatherCatV1.15B25,2013-05-30 17:32:00,
2013-05-30 13:37:00,72.1,69.0,30.09,ENE,57,2.0,2.0,90,0.00,,,0.13,WeatherCatV1.15B25,2013-05-30 17:37:00,
2013-05-30 13:42:00,72.8,69.0,30.09,ENE,57,0.0,0.0,88,0.00,,,0.13,WeatherCatV1.15B25,2013-05-30 17:42:00,
2013-05-30 13:47:00,73.2,69.1,30.08,ENE,57,0.0,0.0,87,0.00,,,0.13,WeatherCatV1.15B25,2013-05-30 17:47:00,
2013-05-30 13:52:00,73.6,69.5,30.09,ENE,57,0.0,0.0,87,0.00,,,0.13,WeatherCatV1.15B25,2013-05-30 17:52:00,
2013-05-30 13:57:00,73.6,69.1,30.09,ENE,57,0.0,0.0,86,0.00,,,0.13,WeatherCatV1.15B25,2013-05-30 17:57:00,
2013-05-30 14:02:00,73.6,69.1,30.09,ENE,57,0.0,0.0,86,0.00,,,0.13,WeatherCatV1.15B25,2013-05-30 18:02:00,
2013-05-30 14:07:00,73.3,68.5,30.09,North,355,0.0,0.0,85,0.00,,,0.13,WeatherCatV1.15B25,2013-05-30 18:07:00,
2013-05-30 14:12:00,73.4,68.9,30.09,North,355,0.0,0.0,86,0.00,,,0.13,WeatherCatV1.15B25,2013-05-30 18:12:00,
2013-05-30 14:17:00,73.4,68.9,30.09,North,355,0.0,0.0,86,0.00,,,0.13,WeatherCatV1.15B25,2013-05-30 18:17:00,
2013-05-30 14:22:00,73.5,69.0,30.09,NNE,17,0.0,0.0,86,0.00,,,0.13,WeatherCatV1.15B25,2013-05-30 18:22:00,
2013-05-30 14:27:00,73.2,68.8,30.09,NNE,17,0.0,0.0,86,0.00,,,0.14,WeatherCatV1.15B25,2013-05-30 18:27:00,
2013-05-30 14:32:00,72.9,68.8,30.09,NNE,17,0.0,1.0,87,0.30,,,0.17,WeatherCatV1.15B25,2013-05-30 18:32:00,
2013-05-30 14:37:00,72.8,68.7,30.09,NNE,17,0.0,0.0,87,0.13,,,0.18,WeatherCatV1.15B25,2013-05-30 18:37:00,
2013-05-30 14:42:00,72.9,68.8,30.09,NNE,17,0.0,0.0,87,0.06,,,0.18,WeatherCatV1.15B25,2013-05-30 18:42:00,
2013-05-30 14:47:00,73.9,70.4,30.08,NNE,17,0.0,0.0,89,0.04,,,0.18,WeatherCatV1.15B25,2013-05-30 18:47:00,
2013-05-30 14:52:00,74.4,70.9,30.08,NNE,18,0.0,0.0,89,0.00,,,0.18,WeatherCatV1.15B25,2013-05-30 18:52:00,
2013-05-30 14:57:00,74.6,70.8,30.08,NE,34,0.0,0.0,88,0.00,,,0.18,WeatherCatV1.15B25,2013-05-30 18:57:00,
2013-05-30 15:02:00,75.3,71.2,30.08,NE,34,0.0,0.0,87,0.00,,,0.18,WeatherCatV1.15B25,2013-05-30 19:02:00,
2013-05-30 15:07:00,77.3,73.1,30.07,NE,35,0.0,0.0,87,0.00,,,0.18,WeatherCatV1.15B25,2013-05-30 19:07:00,
2013-05-30 15:12:00,77.6,73.1,30.07,NE,35,0.0,0.0,86,0.00,,,0.18,WeatherCatV1.15B25,2013-05-30 19:12:00,
2013-05-30 15:17:00,78.3,73.4,30.07,NE,35,0.0,0.0,85,0.00,,,0.18,WeatherCatV1.15B25,2013-05-30 19:17:00,
2013-05-30 15:22:00,78.5,73.2,30.07,NE,35,0.0,0.0,84,0.00,,,0.18,WeatherCatV1.15B25,2013-05-30 19:22:00,
2013-05-30 15:27:00,79.5,73.5,30.06,NE,35,0.0,0.0,82,0.00,,,0.18,WeatherCatV1.15B25,2013-05-30 19:27:00,
2013-05-30 15:32:00,80.1,72.6,30.06,NE,35,0.0,0.0,78,0.00,,,0.18,WeatherCatV1.15B25,2013-05-30 19:32:00,
2013-05-30 15:37:00,81.2,73.7,30.06,NNE,13,0.0,2.0,78,0.00,,,0.18,WeatherCatV1.15B25,2013-05-30 19:37:00,
2013-05-30 15:42:00,81.8,73.5,30.05,North,10,1.0,2.0,76,0.00,,,0.18,WeatherCatV1.15B25,2013-05-30 19:42:00,
2013-05-30 15:47:00,82.1,70.0,30.05,East,81,0.0,3.0,67,0.00,,,0.18,WeatherCatV1.15B25,2013-05-30 19:47:00,
2013-05-30 15:52:00,83.2,71.9,30.04,East,80,0.0,0.0,69,0.00,,,0.18,WeatherCatV1.15B25,2013-05-30 19:52:00,
2013-05-30 15:57:00,83.4,71.7,30.04,East,80,0.0,0.0,68,0.00,,,0.18,WeatherCatV1.15B25,2013-05-30 19:57:00,
2013-05-30 16:02:00,83.9,71.3,30.04,NW,317,0.0,0.0,66,0.00,,,0.18,WeatherCatV1.15B25,2013-05-30 20:02:00,
2013-05-30 16:07:00,83.8,71.6,30.04,NW,317,0.0,1.0,67,0.00,,,0.18,WeatherCatV1.15B25,2013-05-30 20:07:00,
2013-05-30 16:12:00,83.7,70.2,30.04,NW,317,0.0,0.0,64,0.00,,,0.18,WeatherCatV1.15B25,2013-05-30 20:12:00,
2013-05-30 16:17:00,84.3,68.9,30.03,SSE,168,0.0,0.0,60,0.00,,,0.18,WeatherCatV1.15B25,2013-05-30 20:17:00,
2013-05-30 16:22:00,83.9,67.0,30.04,SSE,167,0.0,0.0,57,0.00,,,0.18,WeatherCatV1.15B25,2013-05-30 20:22:00,
2013-05-30 16:27:00,83.6,68.2,30.04,South,169,0.0,1.0,60,0.00,,,0.18,WeatherCatV1.15B25,2013-05-30 20:27:00,
2013-05-30 16:32:00,83.4,69.5,30.04,SSE,164,0.0,0.0,63,0.00,,,0.18,WeatherCatV1.15B25,2013-05-30 20:32:00,
2013-05-30 16:37:00,83.5,70.9,30.04,SSE,164,0.0,0.0,66,0.00,,,0.18,WeatherCatV1.15B25,2013-05-30 20:37:00,
2013-05-30 16:42:00,83.8,69.4,30.04,SSE,165,0.0,0.0,62,0.00,,,0.18,WeatherCatV1.15B25,2013-05-30 20:42:00,
2013-05-30 16:47:00,84.4,70.4,30.03,SSE,165,0.0,0.0,63,0.00,,,0.18,WeatherCatV1.15B25,2013-05-30 20:47:00,
2013-05-30 16:52:00,85.0,70.5,30.03,SSE,164,0.0,0.0,62,0.00,,,0.18,WeatherCatV1.15B25,2013-05-30 20:52:00,
2013-05-30 16:57:00,85.1,70.6,30.03,ESE,118,0.0,0.0,62,0.00,,,0.18,WeatherCatV1.15B25,2013-05-30 20:57:00,
2013-05-30 17:02:00,85.1,69.6,30.03,ESE,111,0.0,2.0,60,0.00,,,0.18,WeatherCatV1.15B25,2013-05-30 21:02:00,
2013-05-30 17:07:00,85.0,70.0,30.03,ESE,111,0.0,0.0,61,0.00,,,0.18,WeatherCatV1.15B25,2013-05-30 21:07:00,
2013-05-30 17:12:00,85.2,71.2,30.02,ESE,111,0.0,0.0,63,0.00,,,0.18,WeatherCatV1.15B25,2013-05-30 21:12:00,
2013-05-30 17:17:00,85.6,72.5,30.02,North,5,0.0,0.0,65,0.00,,,0.18,WeatherCatV1.15B25,2013-05-30 21:17:00,
2013-05-30 17:22:00,85.6,70.1,30.02,East,85,0.0,0.0,60,0.00,,,0.18,WeatherCatV1.15B25,2013-05-30 21:22:00,
2013-05-30 17:27:00,85.5,70.0,30.01,East,84,0.0,0.0,60,0.00,,,0.18,WeatherCatV1.15B25,2013-05-30 21:27:00,
2013-05-30 17:32:00,85.8,71.7,30.01,East,85,0.0,0.0,63,0.00,,,0.18,WeatherCatV1.15B25,2013-05-30 21:32:00,
2013-05-30 17:37:00,85.9,69.9,30.01,NW,315,0.0,0.0,59,0.00,,,0.18,WeatherCatV1.15B25,2013-05-30 21:37:00,
2013-05-30 17:42:00,85.9,67.8,30.01,East,90,0.0,1.0,55,0.00,,,0.18,WeatherCatV1.15B25,2013-05-30 21:42:00,
2013-05-30 17:47:00,85.8,67.2,30.01,East,90,0.0,0.0,54,0.00,,,0.18,WeatherCatV1.15B25,2013-05-30 21:47:00,
2013-05-30 17:52:00,85.9,65.6,30.01,East,90,0.0,0.0,51,0.00,,,0.18,WeatherCatV1.15B25,2013-05-30 21:52:00,
2013-05-30 17:57:00,86.1,66.4,30.00,South,171,0.0,2.0,52,0.00,,,0.18,WeatherCatV1.15B25,2013-05-30 21:57:00,
2013-05-30 18:02:00,86.1,65.3,30.00,South,171,2.0,2.0,50,0.00,,,0.18,WeatherCatV1.15B25,2013-05-30 22:02:00,
2013-05-30 18:07:00,86.1,65.8,30.00,South,187,1.0,3.0,51,0.00,,,0.18,WeatherCatV1.15B25,2013-05-30 22:07:00,
2013-05-30 18:12:00,86.2,63.6,30.00,East,81,0.0,2.0,47,0.00,,,0.18,WeatherCatV1.15B25,2013-05-30 22:12:00,
2013-05-30 18:17:00,86.2,66.5,30.00,SE,145,3.0,3.0,52,0.00,,,0.18,WeatherCatV1.15B25,2013-05-30 22:17:00,
2013-05-30 18:22:00,86.2,64.8,29.99,SE,130,0.0,0.0,49,0.00,,,0.18,WeatherCatV1.15B25,2013-05-30 22:22:00,
2013-05-30 18:27:00,86.2,65.9,29.99,ESE,117,0.0,1.0,51,0.00,,,0.18,WeatherCatV1.15B25,2013-05-30 22:27:00,
2013-05-30 18:32:00,86.1,63.5,29.99,ESE,114,1.0,1.0,47,0.00,,,0.18,WeatherCatV1.15B25,2013-05-30 22:32:00,
2013-05-30 18:37:00,86.1,63.5,29.99,SSE,159,2.0,2.0,47,0.00,,,0.18,WeatherCatV1.15B25,2013-05-30 22:37:00,
2013-05-30 18:42:00,85.9,63.9,29.99,ESE,116,0.0,3.0,48,0.00,,,0.18,WeatherCatV1.15B25,2013-05-30 22:42:00,
2013-05-30 18:47:00,86.0,67.4,30.00,West,268,3.0,3.0,54,0.00,,,0.18,WeatherCatV1.15B25,2013-05-30 22:47:00,
2013-05-30 18:52:00,86.1,63.5,30.00,West,280,2.0,3.0,47,0.00,,,0.18,WeatherCatV1.15B25,2013-05-30 22:52:00,
2013-05-30 18:57:00,86.3,64.9,29.99,WSW,247,0.0,0.0,49,0.00,,,0.18,WeatherCatV1.15B25,2013-05-30 22:57:00,
2013-05-30 19:02:00,86.3,66.0,29.99,SSE,161,0.0,0.0,51,0.00,,,0.18,WeatherCatV1.15B25,2013-05-30 23:02:00,
2013-05-30 19:07:00,86.1,65.8,29.99,SSE,161,0.0,0.0,51,0.00,,,0.18,WeatherCatV1.15B25,2013-05-30 23:07:00,
2013-05-30 19:12:00,85.8,65.0,29.99,SSE,161,0.0,0.0,50,0.00,,,0.18,WeatherCatV1.15B25,2013-05-30 23:12:00,
2013-05-30 19:17:00,85.4,64.0,29.99,SSE,160,0.0,0.0,49,0.00,,,0.18,WeatherCatV1.15B25,2013-05-30 23:17:00,
2013-05-30 19:22:00,85.2,64.4,29.99,SSE,160,0.0,0.0,50,0.00,,,0.18,WeatherCatV1.15B25,2013-05-30 23:22:00,
2013-05-30 19:27:00,84.5,67.0,29.99,SSE,161,0.0,0.0,56,0.00,,,0.18,WeatherCatV1.15B25,2013-05-30 23:27:00,
2013-05-30 19:32:00,83.9,64.9,30.00,SSE,161,0.0,0.0,53,0.00,,,0.18,WeatherCatV1.15B25,2013-05-30 23:32:00,
2013-05-30 19:37:00,83.6,65.2,29.99,SSE,160,0.0,0.0,54,0.00,,,0.18,WeatherCatV1.15B25,2013-05-30 23:37:00,
2013-05-30 19:42:00,83.0,64.1,29.99,SSE,160,0.0,0.0,53,0.00,,,0.18,WeatherCatV1.15B25,2013-05-30 23:42:00,
2013-05-30 19:47:00,82.7,63.8,29.99,SSE,161,0.0,0.0,53,0.00,,,0.18,WeatherCatV1.15B25,2013-05-30 23:47:00,
2013-05-30 19:52:00,82.3,65.5,30.00,SSE,161,0.0,0.0,57,0.00,,,0.18,WeatherCatV1.15B25,2013-05-30 23:52:00,
2013-05-30 19:57:00,82.0,64.2,30.00,SSE,160,0.0,0.0,55,0.00,,,0.18,WeatherCatV1.15B25,2013-05-30 23:57:00,
2013-05-30 20:02:00,81.6,63.8,30.00,SSE,160,0.0,0.0,55,0.00,,,0.18,WeatherCatV1.15B25,2013-05-31 00:02:00,
2013-05-30 20:07:00,81.3,66.5,30.00,SSE,161,0.0,0.0,61,0.00,,,0.18,WeatherCatV1.15B25,2013-05-31 00:07:00,
2013-05-30 20:12:00,80.8,65.1,29.99,SSE,161,0.0,0.0,59,0.00,,,0.18,WeatherCatV1.15B25,2013-05-31 00:12:00,
2013-05-30 20:17:00,80.4,65.2,29.99,SSE,160,0.0,0.0,60,0.00,,,0.18,WeatherCatV1.15B25,2013-05-31 00:17:00,
2013-05-30 20:22:00,79.9,65.2,29.99,SSE,161,0.0,0.0,61,0.00,,,0.18,WeatherCatV1.15B25,2013-05-31 00:22:00,
2013-05-30 20:27:00,79.4,64.3,29.99,SSE,161,0.0,0.0,60,0.00,,,0.18,WeatherCatV1.15B25,2013-05-31 00:27:00,
2013-05-30 20:32:00,79.0,64.8,29.99,SSE,161,0.0,0.0,62,0.00,,,0.18,WeatherCatV1.15B25,2013-05-31 00:32:00,
2013-05-30 20:37:00,78.7,64.6,29.99,SSE,161,0.0,0.0,62,0.00,,,0.18,WeatherCatV1.15B25,2013-05-31 00:37:00,
2013-05-30 20:42:00,78.4,65.2,29.99,SSE,161,0.0,0.0,64,0.00,,,0.18,WeatherCatV1.15B25,2013-05-31 00:42:00,
2013-05-30 20:47:00,77.9,65.2,29.99,SSE,161,0.0,0.0,65,0.00,,,0.18,WeatherCatV1.15B25,2013-05-31 00:47:00,
2013-05-30 20:52:00,77.4,64.2,29.99,SSE,160,0.0,0.0,64,0.00,,,0.18,WeatherCatV1.15B25,2013-05-31 00:52:00,
2013-05-30 20:57:00,77.0,64.3,29.99,SSE,161,0.0,0.0,65,0.00,,,0.18,WeatherCatV1.15B25,2013-05-31 00:57:00,
2013-05-30 21:02:00,76.9,65.1,29.99,SSE,161,0.0,0.0,67,0.00,,,0.18,WeatherCatV1.15B25,2013-05-31 01:02:00,
2013-05-30 21:07:00,76.5,64.7,30.00,SSE,161,0.0,0.0,67,0.00,,,0.18,WeatherCatV1.15B25,2013-05-31 01:07:00,
2013-05-30 21:12:00,76.2,64.4,30.00,SSE,160,0.0,0.0,67,0.00,,,0.18,WeatherCatV1.15B25,2013-05-31 01:12:00,
2013-05-30 21:17:00,76.1,65.6,30.00,SSE,161,0.0,0.0,70,0.00,,,0.18,WeatherCatV1.15B25,2013-05-31 01:17:00,
2013-05-30 21:22:00,75.8,65.3,30.00,SSE,161,0.0,0.0,70,0.00,,,0.18,WeatherCatV1.15B25,2013-05-31 01:22:00,
2013-05-30 21:27:00,75.3,64.8,30.00,SSE,160,0.0,0.0,70,0.00,,,0.18,WeatherCatV1.15B25,2013-05-31 01:27:00,
2013-05-30 21:32:00,75.0,64.5,30.00,SSE,160,0.0,0.0,70,0.00,,,0.18,WeatherCatV1.15B25,2013-05-31 01:32:00,
2013-05-30 21:37:00,74.6,64.6,30.00,SSE,161,0.0,0.0,71,0.00,,,0.18,WeatherCatV1.15B25,2013-05-31 01:37:00,
2013-05-30 21:42:00,74.3,64.7,30.00,SSE,161,0.0,0.0,72,0.00,,,0.18,WeatherCatV1.15B25,2013-05-31 01:42:00,
2013-05-30 21:47:00,73.9,64.7,30.00,SSE,161,0.0,0.0,73,0.00,,,0.18,WeatherCatV1.15B25,2013-05-31 01:47:00,
2013-05-30 21:52:00,73.6,64.8,30.00,SSE,161,0.0,0.0,74,0.00,,,0.18,WeatherCatV1.15B25,2013-05-31 01:52:00,
2013-05-30 21:57:00,73.4,64.6,30.01,SSE,161,0.0,0.0,74,0.00,,,0.18,WeatherCatV1.15B25,2013-05-31 01:57:00,
2013-05-30 22:02:00,73.2,64.0,30.01,SSE,161,0.0,0.0,73,0.00,,,0.18,WeatherCatV1.15B25,2013-05-31 02:02:00,
2013-05-30 22:07:00,73.3,64.5,30.01,SSE,160,0.0,0.0,74,0.00,,,0.18,WeatherCatV1.15B25,2013-05-31 02:07:00,
2013-05-30 22:12:00,73.4,64.2,30.01,SSE,161,0.0,0.0,73,0.00,,,0.18,WeatherCatV1.15B25,2013-05-31 02:12:00,
2013-05-30 22:17:00,73.4,63.8,30.01,SSE,161,0.0,0.0,72,0.00,,,0.18,WeatherCatV1.15B25,2013-05-31 02:17:00,
2013-05-30 22:22:00,73.3,63.7,30.01,SSE,161,0.0,0.0,72,0.00,,,0.18,WeatherCatV1.15B25,2013-05-31 02:22:00,
2013-05-30 22:27:00,73.2,64.4,30.01,SSE,160,0.0,0.0,74,0.00,,,0.18,WeatherCatV1.15B25,2013-05-31 02:27:00,
2013-05-30 22:32:00,73.1,64.3,30.01,SSE,161,0.0,0.0,74,0.00,,,0.18,WeatherCatV1.15B25,2013-05-31 02:32:00,
2013-05-30 22:37:00,72.9,64.9,30.01,SSE,161,0.0,0.0,76,0.00,,,0.18,WeatherCatV1.15B25,2013-05-31 02:37:00,
2013-05-30 22:42:00,72.4,64.8,30.01,SSE,160,0.0,0.0,77,0.00,,,0.18,WeatherCatV1.15B25,2013-05-31 02:42:00,
2013-05-30 22:47:00,72.0,64.0,30.01,SSE,161,0.0,0.0,76,0.00,,,0.18,WeatherCatV1.15B25,2013-05-31 02:47:00,
2013-05-30 22:52:00,71.6,64.0,30.01,SSE,161,0.0,0.0,77,0.00,,,0.18,WeatherCatV1.15B25,2013-05-31 02:52:00,
2013-05-30 22:57:00,71.3,64.1,30.02,SSE,160,0.0,0.0,78,0.00,,,0.18,WeatherCatV1.15B25,2013-05-31 02:57:00,
2013-05-30 23:02:00,71.0,64.1,30.02,SSE,160,0.0,0.0,79,0.00,,,0.18,WeatherCatV1.15B25,2013-05-31 03:02:00,
2013-05-30 23:07:00,70.9,64.1,30.01,SSE,161,0.0,0.0,79,0.00,,,0.18,WeatherCatV1.15B25,2013-05-31 03:07:00,
2013-05-30 23:12:00,70.7,64.2,30.01,SSE,161,0.0,0.0,80,0.00,,,0.18,WeatherCatV1.15B25,2013-05-31 03:12:00,
2013-05-30 23:17:00,70.5,64.4,30.02,SSE,160,0.0,0.0,81,0.00,,,0.18,WeatherCatV1.15B25,2013-05-31 03:17:00,
2013-05-30 23:22:00,70.3,64.2,30.02,SSE,161,0.0,0.0,81,0.00,,,0.18,WeatherCatV1.15B25,2013-05-31 03:22:00,
2013-05-30 23:27:00,70.0,63.9,30.02,SSE,161,0.0,0.0,81,0.00,,,0.18,WeatherCatV1.15B25,2013-05-31 03:27:00,
2013-05-30 23:32:00,69.8,64.0,30.02,SSE,161,0.0,0.0,82,0.00,,,0.18,WeatherCatV1.15B25,2013-05-31 03:32:00,
2013-05-30 23:37:00,69.6,63.9,30.02,SSE,161,0.0,0.0,82,0.00,,,0.18,WeatherCatV1.15B25,2013-05-31 03:37:00,
2013-05-30 23:42:00,69.5,64.1,30.02,SSE,160,0.0,0.0,83,0.00,,,0.18,WeatherCatV1.15B25,2013-05-31 03:42:00,
2013-05-30 23:47:00,69.4,63.7,30.02,SSE,161,0.0,0.0,82,0.00,,,0.18,WeatherCatV1.15B25,2013-05-31 03:47:00,
2013-05-30 23:52:00,69.4,64.0,30.02,SSE,161,0.0,0.0,83,0.00,,,0.18,WeatherCatV1.15B25,2013-05-31 03:52:00,
2013-05-30 23:57:00,69.4,64.0,30.02,SSE,160,0.0,0.0,83,0.00,,,0.18,WeatherCatV1.15B25,2013-05-31 03:57:00,